Location: Dayton
(39.7590°N, 84.1920°W)
Time: 11:52:36
(UTC-05:00)

ATLAS CENTAUR R/B - Visible Passes

Search period start: 28 November 2014 00:00
Search period end: 08 December 2014 00:00
Orbit: 253 x 9263 km, 57.4° (Epoch: 09 November)

Date Brightness Start Highest point End Pass type
(mag) Time Alt. Az. Time Alt. Az. Time Alt. Az.
28 Nov 5.7 03:00:40 67° NNW 03:04:53 78° NE 03:59:18 10° SE visible
28 Nov 6.6 06:15:10 15° WNW 06:34:53 39° WSW 07:24:02 10° SSW visible
29 Nov 6.1 01:42:01 54° NE 01:42:01 54° NE 02:23:31 10° ESE visible
29 Nov 6.1 04:56:29 36° WNW 05:09:23 60° WSW 06:05:53 10° S visible
30 Nov 6.7 00:23:12 30° ENE 00:23:12 30° ENE 00:43:17 10° E visible
30 Nov 5.8 03:37:39 64° NW 03:43:36 84° SW 04:40:46 10° SSE visible
30 Nov 6.8 06:52:43 10° WNW 07:13:00 26° WSW 07:51:08 10° SW visible
30 Nov 3.5 19:22:14 10° SSW 19:22:56 19° SSW 19:22:56 19° SSW visible
30 Nov 7.2 23:04:16 11° ENE 23:04:16 11° ENE 23:05:38 10° ENE visible
01 Dec 5.9 02:18:42 71° NE 02:18:42 71° NE 03:09:04 10° SE visible
01 Dec 6.4 05:33:08 28° WNW 05:47:48 45° WSW 06:39:10 10° S visible
02 Dec 6.5 00:59:37 42° ENE 00:59:37 42° ENE 01:30:53 10° ESE visible
02 Dec 6.0 04:14:01 54° WNW 04:21:33 67° WSW 05:18:13 10° SSE visible
02 Dec 4.4 19:57:38 10° WSW 19:58:17 17° W 19:58:17 17° W visible
02 Dec 7.1 23:40:24 20° ENE 23:40:24 20° ENE 23:50:14 10° E visible
03 Dec 5.9 02:54:47 87° N 02:55:22 88° NE 03:50:29 10° SSE visible
03 Dec 6.6 06:09:10 19° WNW 06:24:54 31° WSW 07:07:30 10° SSW visible
03 Dec 2.1 18:35:33 10° S 18:37:49 36° ESE 18:38:30 33° E visible
04 Dec 6.4 01:35:24 55° E 01:35:24 55° E 02:16:00 10° SE visible
04 Dec 6.2 04:49:46 42° W 04:58:40 51° WSW 05:51:45 10° S visible
05 Dec 7.0 00:15:53 29° E 00:15:53 29° E 00:35:48 10° E visible
05 Dec 6.0 03:30:14 73° WSW 03:31:51 74° SW 04:27:58 10° SSE visible
05 Dec 7.0 06:44:35 12° WNW 07:00:23 19° WSW 07:28:45 10° SW visible
05 Dec 2.0 19:09:15 10° WSW 19:11:51 63° NW 19:12:35 51° N visible
06 Dec 6.3 02:10:34 68° ESE 02:10:34 68° ESE 02:57:25 10° SE visible
06 Dec 6.6 05:24:53 31° W 05:34:40 37° WSW 06:21:01 10° SSW visible
06 Dec 3.0 17:47:26 10° SSE 17:49:14 18° ESE 17:52:01 10° ENE visible
07 Dec 6.9 00:50:44 39° E 00:50:44 39° E 01:20:07 10° ESE visible
07 Dec 6.3 04:05:02 57° WSW 04:07:34 58° WSW 05:01:43 10° S visible
07 Dec 3.6 19:42:55 10° W 19:45:47 31° NNW 19:45:47 31° NNW visible
07 Dec 7.4 23:30:46 17° E 23:30:46 17° E 23:38:39 10° E visible
